Location: Barcelona
(41.3830°N, 2.1830°E)
Time: 08:46:45
(UTC+02:00)

ISS - Pass Details

Date: 25 July 2017
Orbit: 400 x 408 km, 51.6° (Epoch: 21 July)

Event Time Altitude Azimuth Distance (km) Brightness Sun altitude
Rises 04:54:50 0° 302° (WNW) 2,315 -0.1 -16.5°
Reaches altitude 10° 04:56:56 10° 299° (WNW) 1,454 -1.2 -16.2°
Maximum altitude 05:00:08 57° 220° (SW) 477 -3.9 -15.8°
Drops below altitude 10° 05:03:20 10° 140° (SE) 1,449 -1.1 -15.4°
Sets 05:05:25 0° 136° (SE) 2,306 0.0 -15.1°
